Tracking 29892 objects as of 21-Nov-2024
HD Live streaming from Space Station
objects crossing your sky now

SL-16 DEB

Track SL-16 DEB now!
10-day predictions


NORAD ID: 22290
Int'l Code: 1992-093E
Perigee: 845.1 km
Apogee: 1,131.4 km
Inclination: 71.0 °
Period: 104.7 minutes
Semi major axis: 7359 km
RCS: 0.091 m2 (small)
Launch date: December 25, 1992
Source: Commonwealth of Independent States (former USSR) (CIS)
Launch site: TYURATAM MISSILE AND SPACE COMPLEX (TTMTR)

Note: This is SATELLITE DEBRIS
Your satellite tracking list
Your tracking list is empty




NASA's NSSDC Master Catalog

Two Line Element Set (TLE):
1 22290U 92093E   24325.40408789  .00000124  00000-0  15127-3 0  9990
2 22290  71.0481 105.9356 0194545  14.8766  16.0499 13.75154579599624
Source of the keplerian elements: AFSPC